Location: Tamazert
(32.6352°N, 5.2072°W)
Time: 03:36:43
(UTC+00:00)

Vanguard 1 Rocket - Pass Details

Date: 06 October 2022
Orbit: 650 x 4225 km, 34.3° (Epoch: 04 December)

Event Time Altitude Azimuth Distance (km) Brightness Sun altitude
Rises 14:45:24 0° 195° (SSW) 7,842 12.8 36.9°
Reaches altitude 10° 14:52:14 10° 184° (S) 7,162 12.6 35.8°
Maximum altitude 15:11:12 27° 136° (SE) 6,010 11.7 32.5°
Drops below altitude 10° 15:28:11 10° 89° (E) 6,567 11.4 29.4°
Sets 15:33:47 0° 78° (ENE) 7,136 11.4 28.4°
